Voltar ao catálogo

STARLINK-6297

AtivoComunicaçõesVLEO
NORAD 57352·PAYLOAD·🇺🇸 United States

Lançado Jul 16, 2023 de Cape Canaveral Space Force Station

Loading…

Próximas Passagens (próximas 24 horas)

TLE

AtualizadoSource: CelesTrak SupGP

Época: Sep 15, 2026, 02:39 UTC

1 57352C 23099AA  26258.11090278 -.00023653  00000+0 -85681-3 0  2585
2 57352  42.9993 252.0174 0000960 259.3922 251.5104 15.27586879    15

Acompanhe STARLINK-6297 em tempo real com AllMySat

Download on the App Store